Location: Voyageurs National Park
(48.5020°N, 92.9292°W)
Time: 18:13:17
(UTC-05:00)

Daily predictions for brighter satellites

Satellite Brightness Start Highest point End
(mag) Time Altitude Azimuth Time Altitude Azimuth Time Altitude Azimuth
ERS-1 Rocket 3.1 21:23:13 10° SSE 21:28:10 63° ENE 21:33:09 10° N
COSMOS 2406 3.9 21:23:50 10° S 21:28:58 35° ESE 21:34:05 10° NE
H-2A R/B 3.3 21:25:10 10° ESE 21:29:12 26° ENE 21:33:19 10° N
SAR-Lupe-1 4.4 21:25:53 10° S 21:29:27 69° WSW 21:33:03 10° NNW
CZ-4B DEB 3.4 21:29:51 10° S 21:32:47 52° W 21:35:44 10° NNW
USA 186 4.2 21:31:21 10° SSW 21:33:55 22° W 21:36:28 10° NW
USA 81 4.1 21:30:57 10° S 21:36:14 81° E 21:41:33 10° N
ARGOS 3.6 21:33:14 10° SE 21:38:23 47° ENE 21:43:35 10° N
DNEPR-1 R/B 3.6 21:34:58 10° NW 21:39:12 76° NE 21:43:39 10° SE
Cosmos 1743 2.8 21:36:05 10° N 21:39:59 90° E 21:43:53 10° S
Cosmos 773 Rocket 3.9 21:35:46 10° SSW 21:40:54 77° ESE 21:46:03 10° NNE
NOSS 2-2 (D) 4.0 21:37:10 10° S 21:40:55 39° ESE 21:45:18 10° NE
CENTAUR R/B 3.3 21:39:08 10° NW 21:46:53 72° SW 21:55:14 10° SSE
Cosmos 2184 Rocket 4.1 21:42:05 10° N 21:48:30 85° E 21:54:49 10° S
Cosmos 2074 Rocket 4.1 21:43:32 10° N 21:49:49 90° ESE 21:56:05 10° S
Meteor 2-13 Rocket 4.5 21:45:22 10° N 21:51:28 89° E 21:57:32 10° S
NOSS 3-4 (A) 4.3 21:45:36 10° WSW 21:51:51 60° NW 21:58:27 10° NE
NOSS 3-4 (C) 4.2 21:45:42 10° WSW 21:51:59 61° NW 21:58:33 10° NE
Cosmos 1437 Rocket 3.7 21:50:54 10° N 21:54:22 32° ENE 21:57:30 12° SE
Cosmos 1536 Rocket 3.9 21:50:21 10° SSW 21:54:39 69° WNW 21:58:59 10° N
SL-27 R/B 3.5 21:51:37 10° SSE 21:54:48 29° ESE 21:58:00 10° NE
Cosmos 921 Rocket 4.5 21:53:14 10° N 21:57:05 26° ENE 22:00:46 10° ESE
USA 245 2.8 21:54:50 12° SE 21:57:09 41° ENE 21:59:28 10° N
Aureole 1 Rocket 3.0 21:55:07 10° S 21:58:07 32° ESE 22:00:53 10° NE
Cosmos 1606 Rocket 4.3 21:54:07 10° N 21:58:08 36° ENE 22:01:41 12° SE
YAOGAN 11 4.1 21:55:01 10° SSE 21:59:17 73° ENE 22:03:37 10° N
NOSS 2-2 (C) 3.6 21:55:36 10° SSW 21:59:35 58° SE 22:04:18 10° NE
Cosmos 2056 Rocket 4.1 21:54:50 10° NNW 21:59:50 44° ENE 22:04:17 12° SE
Cosmos 1680 Rocket 3.6 21:55:48 10° S 22:00:54 57° ESE 22:06:01 10° NNE
Cosmos 405 3.1 21:57:41 10° N 22:01:16 63° ENE 22:04:29 12° SSE
TELKOM 3 3.4 21:59:16 10° WNW 22:01:30 69° N 22:04:29 10° E
Cosmos 1697 Rocket 4.3 22:02:21 10° N 22:06:53 24° NE 22:11:25 10° E
MetOp-B 4.2 22:01:35 10° SSE 22:06:56 85° WSW 22:12:21 10° NNW
Meteor 2-9 Rocket 4.2 22:02:05 10° NNW 22:07:33 90° E 22:13:06 10° S
Cosmos 1726 Rocket 4.2 22:05:26 10° N 22:09:32 39° ENE 22:12:47 15° SE
USA 234 4.4 22:03:38 10° ENE 22:09:44 44° N 22:15:50 10° WNW
Cosmos 1666 3.3 22:09:21 10° NNW 22:13:03 55° W 22:16:42 10° S
Cosmos 2058 Rocket 4.0 22:09:21 10° N 22:13:23 33° ENE 22:16:28 15° SE
Meteor 2-4 Rocket 3.7 22:09:45 10° S 22:15:23 81° E 22:21:13 10° NNE
SPOT 5 2.6 22:13:46 12° SSE 22:17:50 85° WSW 22:22:13 10° NNW
Cosmos 839 Rocket 4.4 22:12:51 10° NNW 22:19:10 67° NE 22:25:33 14° SE
Lacrosse 5 rocket 3.6 22:15:29 10° WNW 22:19:32 30° N 22:23:38 10° NE
SPOT 1/Viking Rocket 3.6 22:15:21 13° SSE 22:19:58 74° ENE 22:25:09 10° NNW
Landsat 7 4.2 22:17:21 15° SE 22:21:05 51° ENE 22:25:42 10° N
CARTOSAT-1 4.5 22:19:44 16° SE 22:22:45 36° ENE 22:26:43 10° N
SL-08 RB Rocket 3.7 22:20:54 13° SSE 22:24:50 88° WSW 22:29:21 10° NNW
Cosmos 1025 Rocket 2.9 22:23:02 10° S 22:27:17 78° E 22:31:35 10° NNE
ASTEX 1 4.3 22:25:01 10° SSW 22:29:45 47° W 22:34:31 10° NNW
Nadezhda 1 Rocket 4.2 22:23:36 10° SSW 22:29:57 80° W 22:36:25 10° N
Cosmos 1833 Rocket 4.2 22:28:30 15° ESE 22:30:19 17° E 22:33:47 10° ENE
Cosmos 2154 Rocket 4.1 22:25:34 10° N 22:31:57 84° W 22:37:55 12° S
Cosmos 1656 4.4 22:26:57 10° NNW 22:32:07 42° NE 22:36:13 16° ESE
Cosmos 1452 Rocket 4.5 22:27:13 10° N 22:32:07 37° ENE 22:35:54 16° ESE
Terra 2.2 22:32:52 18° SE 22:36:09 50° ENE 22:40:46 10° N
SL-8 Rocket 4.3 22:31:58 10° N 22:38:05 54° ENE 22:42:35 19° SSE
Cosmos 1371 Rocket 4.1 22:33:42 10° NNW 22:39:04 75° WSW 22:43:04 18° SSE
Meteor 1-23 Rocket 4.3 22:36:32 10° SSW 22:42:06 81° W 22:47:46 10° N
Nimbus 7 Rocket 4.4 22:37:47 10° NNE 22:43:53 80° ESE 22:49:58 10° SSW
Meteor 1-15 Rocket 4.5 22:38:18 10° NNW 22:43:53 68° W 22:48:42 14° S
Cosmos 1515 3.7 22:43:36 21° S 22:45:57 60° E 22:49:43 10° NNE
H-2A R/B 2.3 22:45:08 22° SSE 22:47:59 63° ENE 22:52:28 10° N
NOSS 2-2 (E) 4.4 22:44:24 10° WSW 22:48:32 56° NW 22:53:37 10° NE
Cosmos 1980 Rocket 3.5 22:48:27 10° NNW 22:53:29 31° NE 22:57:51 13° ESE
Meteor 1-4 Rocket 3.3 22:50:47 10° N 22:54:14 38° ENE 22:55:39 26° ESE
Cosmos 1441 Rocket 4.5 22:51:47 10° SW 22:55:18 39° WNW 22:58:51 10° N
Cosmos 2341 Rocket 4.2 22:52:13 10° NNW 22:58:32 73° W 23:03:41 16° S
Cosmos 1626 Rocket 4.5 22:57:59 24° SE 22:59:31 31° E 23:03:20 10° NNE
Cosmos 2322 Rocket 4.4 22:56:50 10° N 23:00:39 18° NE 23:04:28 10° E
Iridium 82 4.5 22:57:13 10° N 23:00:46 87° W 23:02:33 28° S
CZ-4C R/B 4.0 23:05:12 26° ESE 23:06:26 34° ENE 23:09:43 10° N
H-2A R/B 2.6 23:04:42 17° S 23:08:22 49° W 23:13:15 10° NNW
DMSP B5D2-2 4.0 23:05:29 10° NNE 23:10:49 84° ESE 23:14:52 18° SSW
COSMOS 2406 4.3 23:07:40 10° SW 23:13:10 45° NW 23:18:38 10° NNE
CZ-4 R/B 4.1 23:10:13 10° NNE 23:15:10 54° E 23:17:40 28° SSE
USA 267 3.7 23:09:18 10° ENE 23:15:15 36° SE 23:19:33 18° S
DELTA 2 DEB (DPAF) 4.4 23:13:12 28° SE 23:15:20 56° ENE 23:19:45 10° N
Cosmos 2218 Rocket 3.9 23:10:18 10° N 23:16:29 84° E 23:20:19 25° SSE
Cosmos 2278 3.9 23:15:00 10° NNW 23:20:41 68° WSW 23:23:52 27° S
Cosmos 1892 Rocket 4.2 23:21:42 16° SSW 23:25:09 55° WNW 23:29:31 10° N
deb Chang Zheng 4 3.5 23:22:08 10° NNE 23:26:29 84° ESE 23:28:42 28° SSW
Cosmos 2082 Rocket 2.5 23:24:52 27° S 23:27:37 49° ESE 23:33:03 10° NE
IGS 5A 3.9 23:26:02 28° SSW 23:28:01 54° W 23:32:08 10° NNW
Cosmos 2228 3.6 23:24:15 10° NNW 23:28:28 51° W 23:30:40 25° SSW
Cosmos 1602 Rocket 3.6 23:30:53 36° SSE 23:32:29 64° E 23:36:47 10° NNE
SeaSat 1 3.1 23:29:44 22° ESE 23:32:34 47° NE 23:37:19 10° NNW
Cosmos 1544 3.9 23:30:13 10° N 23:33:38 37° ENE 23:34:23 33° ESE
Cosmos 1953 3.7 23:30:10 10° NNE 23:33:40 27° ENE 23:34:56 23° ESE
Cosmos 921 Rocket 4.0 23:31:18 10° NNW 23:35:30 39° WSW 23:37:35 24° SSW
Cosmos 2181 Rocket 4.5 23:30:48 12° SSW 23:36:39 59° WNW 23:42:53 10° N
Cosmos 2369 4.2 23:33:19 10° NW 23:38:51 50° WSW 23:41:44 27° S
Cosmos 1842 4.0 23:39:03 34° ESE 23:39:38 37° E 23:43:17 10° NNE
USA 229 DEB 4.0 23:33:32 10° NW 23:40:38 68° NE 23:45:48 21° ESE
USA 229 4.0 23:33:38 10° NW 23:40:44 68° NE 23:45:55 20° ESE
PSLV R/B 4.0 23:40:46 33° WSW 23:41:03 34° W 23:43:40 10° NNW
Cosmos 389 Rocket 3.9 23:39:25 10° NNE 23:42:22 25° ENE 23:43:01 23° E
CZ-2C R/B 3.9 23:38:36 10° NE 23:43:18 26° E 23:44:58 23° ESE
ATLAS CENTAUR R/B 3.6 23:45:58 10° NNW 23:48:36 18° NNE 23:51:10 10° ENE
SL-16 R/B 3.6 23:44:56 10° NNW 23:49:58 32° NE 23:54:09 14° ESE
Nadezhda 3 Rocket 4.3 23:48:00 30° SSE 23:50:59 55° E 23:57:11 10° NNE
Cosmos 1697 Rocket 2.7 23:45:51 10° NNW 23:51:28 75° WSW 23:53:56 35° SSE
Cosmos 1271 Rocket 2.7 23:48:10 10° N 23:52:02 73° ENE 23:52:54 51° SE
USA 234 3.5 23:45:45 10° ESE 23:52:15 68° NNE 23:58:44 10° NW
Iridium 2 3.6 23:50:15 10° N 23:54:05 87° E 23:54:53 54° S
COSMOS 2487 3.0 23:53:27 32° SW 23:54:51 57° WNW 23:58:23 10° NNE
Orbus 7S? 3.8 23:48:43 10° NW 23:56:02 85° NNE 23:57:33 37° ESE
